Simultaneous Nadir Overpasses (SNOs) Predictions

Prediction of SNOs between GOES-16 and NOAA-19 Satellite Orbit:

Table of predicted SNOs for the next 14.0 days since TLE Epoch: 12/6/2019
Index Date Time (GOES-16) GOES-16 Lat,Lon NOAA-19 Lat,Lon Distance(km) Time Diff (sec)
1 12/07/2019 10:42:02 -0.00, -75.20 0.90, -79.13 448.19 80
2 12/08/2019 10:30:23 -0.00, -75.21 0.25, -76.28 123.00 80
3 12/09/2019 10:16:03 -0.00, -75.21 -0.39, -73.43 202.30 80
4 12/11/2019 22:37:07 -0.00, -75.21 -0.75, -78.42 366.48 80
5 12/12/2019 22:25:28 -0.00, -75.21 -0.11, -75.57 41.08 80
6 12/13/2019 22:16:29 -0.01, -75.21 0.59, -72.73 284.54 80
7 12/16/2019 10:37:33 0.03, -75.24 0.59, -77.70 281.29 80
8 12/17/2019 10:23:14 0.03, -75.25 -0.06, -74.86 44.64 80
9 12/18/2019 10:11:34 0.03, -75.26 -0.72, -72.01 370.70 80




NCC Satellite Simultaneous Nadir Overpasses (SNOs) Prediction Service
